Time,TemperatureF,DewpointF,PressureIn,WindDirection,WindDirectionDegrees,WindSpeedMPH,WindSpeedGustMPH,Humidity,HourlyPrecipIn,Conditions,Clouds,dailyrainin,SoftwareType,DateUTC
2013-04-23 00:05:00,57.5,49.6,29.84,East,93,1.0,1.0,75,0.00,,,0.00,Wunderground v.1.15,2013-04-23 07:05:00,
2013-04-23 00:15:00,57.4,49.5,29.83,East,83,2.0,3.0,75,0.00,,,0.00,Wunderground v.1.15,2013-04-23 07:15:00,
2013-04-23 00:25:00,57.4,49.5,29.83,SE,140,2.0,2.0,75,0.00,,,0.00,Wunderground v.1.15,2013-04-23 07:25:00,
2013-04-23 00:35:00,57.2,49.0,29.83,East,82,3.0,3.0,74,0.00,,,0.00,Wunderground v.1.15,2013-04-23 07:35:00,
2013-04-23 00:45:00,57.2,49.0,29.83,ESE,107,2.0,6.0,74,0.00,,,0.00,Wunderground v.1.15,2013-04-23 07:45:00,
2013-04-23 00:55:00,57.1,48.9,29.83,ESE,104,2.0,2.0,74,0.00,,,0.00,Wunderground v.1.15,2013-04-23 07:55:00,
2013-04-23 01:00:00,57.1,48.9,29.83,ESE,112,2.0,3.0,74,0.00,,,0.00,Wunderground v.1.15,2013-04-23 08:00:00,
2013-04-23 01:05:00,57.1,48.9,29.83,East,82,2.0,3.0,74,0.00,,,0.00,Wunderground v.1.15,2013-04-23 08:05:00,
2013-04-23 01:10:00,56.9,48.7,29.83,ESE,110,3.0,3.0,74,0.00,,,0.00,Wunderground v.1.15,2013-04-23 08:10:00,
2013-04-23 01:20:00,56.9,48.7,29.83,ENE,73,2.0,2.0,74,0.00,,,0.00,Wunderground v.1.15,2013-04-23 08:20:00,
2013-04-23 01:30:00,56.9,48.7,29.83,ENE,73,1.0,2.0,74,0.00,,,0.00,Wunderground v.1.15,2013-04-23 08:30:00,
2013-04-23 01:40:00,56.8,48.6,29.83,SE,136,3.0,3.0,74,0.00,,,0.00,Wunderground v.1.15,2013-04-23 08:40:00,
2013-04-23 01:50:00,56.8,48.6,29.82,SE,136,1.0,1.0,74,0.00,,,0.00,Wunderground v.1.15,2013-04-23 08:50:00,
2013-04-23 01:56:00,56.9,48.7,29.82,East,90,1.0,2.0,74,0.00,,,0.00,Wunderground v.1.15,2013-04-23 08:56:00,
2013-04-23 02:00:00,56.9,48.7,29.81,ESE,102,2.0,2.0,74,0.00,,,0.00,Wunderground v.1.15,2013-04-23 09:00:00,
2013-04-23 02:10:00,56.8,48.6,29.81,ESE,102,2.0,2.0,74,0.00,,,0.00,Wunderground v.1.15,2013-04-23 09:10:00,
2013-04-23 02:15:00,56.8,48.6,29.81,SSE,150,2.0,6.0,74,0.00,,,0.00,Wunderground v.1.15,2013-04-23 09:15:00,
2013-04-23 02:20:00,56.8,48.2,29.81,SE,130,2.0,3.0,73,0.00,,,0.00,Wunderground v.1.15,2013-04-23 09:20:00,
2013-04-23 02:25:00,56.8,48.2,29.81,East,89,2.0,3.0,73,0.00,,,0.00,Wunderground v.1.15,2013-04-23 09:25:00,
2013-04-23 02:31:00,56.8,48.2,29.81,East,89,2.0,2.0,73,0.00,,,0.00,Wunderground v.1.15,2013-04-23 09:31:00,
2013-04-23 02:45:00,56.8,48.2,29.80,East,97,3.0,3.0,73,0.00,,,0.00,Wunderground v.1.15,2013-04-23 09:45:00,
2013-04-23 02:55:00,56.8,48.2,29.80,East,85,3.0,3.0,73,0.00,,,0.00,Wunderground v.1.15,2013-04-23 09:55:00,
2013-04-23 03:05:00,56.6,48.0,29.80,SE,141,3.0,3.0,73,0.00,,,0.00,Wunderground v.1.15,2013-04-23 10:05:00,
2013-04-23 03:10:00,56.6,48.0,29.80,ESE,120,3.0,3.0,73,0.00,,,0.00,Wunderground v.1.15,2013-04-23 10:10:00,
2013-04-23 03:15:00,56.5,47.6,29.81,SE,134,3.0,3.0,72,0.00,,,0.00,Wunderground v.1.15,2013-04-23 10:15:00,
2013-04-23 03:20:00,56.5,47.6,29.81,SE,126,3.0,3.0,72,0.00,,,0.00,Wunderground v.1.15,2013-04-23 10:20:00,
2013-04-23 03:26:00,56.5,47.6,29.81,SE,126,1.0,1.0,72,0.00,,,0.00,Wunderground v.1.15,2013-04-23 10:26:00,
2013-04-23 03:30:00,56.5,47.6,29.80,SE,126,1.0,1.0,72,0.00,,,0.00,Wunderground v.1.15,2013-04-23 10:30:00,
2013-04-23 03:40:00,56.5,47.9,29.80,SE,126,1.0,2.0,73,0.00,,,0.00,Wunderground v.1.15,2013-04-23 10:40:00,
2013-04-23 03:50:00,56.6,48.0,29.80,ESE,110,2.0,2.0,73,0.00,,,0.00,Wunderground v.1.15,2013-04-23 10:50:00,
2013-04-23 04:00:00,56.5,47.9,29.80,ESE,107,1.0,2.0,73,0.00,,,0.00,Wunderground v.1.15,2013-04-23 11:00:00,
2013-04-23 04:10:00,56.6,48.0,29.80,ESE,119,2.0,2.0,73,0.00,,,0.00,Wunderground v.1.15,2013-04-23 11:10:00,
2013-04-23 04:20:00,56.6,48.0,29.80,SSE,157,2.0,6.0,73,0.00,,,0.00,Wunderground v.1.15,2013-04-23 11:20:00,
2013-04-23 04:30:00,56.6,48.0,29.80,SE,131,2.0,2.0,73,0.00,,,0.00,Wunderground v.1.15,2013-04-23 11:30:00,
2013-04-23 04:40:00,56.8,48.2,29.80,East,79,1.0,1.0,73,0.00,,,0.00,Wunderground v.1.15,2013-04-23 11:40:00,
2013-04-23 04:50:00,56.8,48.2,29.80,SSW,196,1.0,1.0,73,0.00,,,0.00,Wunderground v.1.15,2013-04-23 11:50:00,
2013-04-23 05:00:00,56.8,48.2,29.80,East,90,3.0,3.0,73,0.00,,,0.00,Wunderground v.1.15,2013-04-23 12:00:00,
2013-04-23 05:10:00,56.8,48.2,29.80,East,90,1.0,1.0,73,0.00,,,0.00,Wunderground v.1.15,2013-04-23 12:10:00,
2013-04-23 05:20:00,56.9,48.3,29.80,East,90,0.0,1.0,73,0.00,,,0.00,Wunderground v.1.15,2013-04-23 12:20:00,
2013-04-23 05:25:00,56.8,48.2,29.80,ESE,103,1.0,3.0,73,0.00,,,0.00,Wunderground v.1.15,2013-04-23 12:25:00,
2013-04-23 05:30:00,56.8,48.2,29.80,East,99,2.0,2.0,73,0.00,,,0.00,Wunderground v.1.15,2013-04-23 12:30:00,
2013-04-23 05:35:00,56.8,48.2,29.80,East,99,2.0,3.0,73,0.00,,,0.00,Wunderground v.1.15,2013-04-23 12:35:00,
2013-04-23 05:45:00,56.8,48.2,29.81,ENE,73,3.0,3.0,73,0.00,,,0.00,Wunderground v.1.15,2013-04-23 12:45:00,
2013-04-23 05:55:00,56.8,48.2,29.81,SE,134,3.0,3.0,73,0.00,,,0.00,Wunderground v.1.15,2013-04-23 12:55:00,
2013-04-23 06:05:00,56.8,48.2,29.81,SE,130,1.0,2.0,73,0.00,,,0.00,Wunderground v.1.15,2013-04-23 13:05:00,
2013-04-23 06:10:00,56.8,48.2,29.81,SE,137,2.0,2.0,73,0.00,,,0.00,Wunderground v.1.15,2013-04-23 13:10:00,
2013-04-23 06:20:00,56.8,48.2,29.82,SE,140,3.0,3.0,73,0.00,,,0.00,Wunderground v.1.15,2013-04-23 13:20:00,
2013-04-23 06:26:00,56.8,48.2,29.82,SE,131,3.0,3.0,73,0.00,,,0.00,Wunderground v.1.15,2013-04-23 13:26:00,
2013-04-23 06:30:00,56.8,48.2,29.82,SE,136,3.0,3.0,73,0.00,,,0.00,Wunderground v.1.15,2013-04-23 13:30:00,
2013-04-23 06:40:00,56.8,48.6,29.82,ESE,112,3.0,3.0,74,0.00,,,0.00,Wunderground v.1.15,2013-04-23 13:40:00,
2013-04-23 06:50:00,56.8,48.2,29.83,SE,130,2.0,2.0,73,0.00,,,0.00,Wunderground v.1.15,2013-04-23 13:50:00,
2013-04-23 07:00:00,56.9,48.3,29.83,ESE,109,1.0,1.0,73,0.00,,,0.00,Wunderground v.1.15,2013-04-23 14:00:00,
2013-04-23 07:10:00,57.1,48.9,29.83,ESE,120,0.0,2.0,74,0.00,,,0.00,Wunderground v.1.15,2013-04-23 14:10:00,
2013-04-23 07:20:00,57.1,48.5,29.83,ESE,109,1.0,2.0,73,0.00,,,0.00,Wunderground v.1.15,2013-04-23 14:20:00,
2013-04-23 07:30:00,57.2,48.6,29.84,East,99,1.0,1.0,73,0.00,,,0.00,Wunderground v.1.15,2013-04-23 14:30:00,
2013-04-23 07:40:00,57.5,48.9,29.84,NE,55,1.0,1.0,73,0.00,,,0.00,Wunderground v.1.15,2013-04-23 14:40:00,
2013-04-23 07:50:00,57.7,48.7,29.84,East,93,1.0,3.0,72,0.00,,,0.00,Wunderground v.1.15,2013-04-23 14:50:00,
2013-04-23 07:55:00,57.7,48.7,29.84,ESE,113,2.0,3.0,72,0.00,,,0.00,Wunderground v.1.15,2013-04-23 14:55:00,
2013-04-23 08:00:00,57.8,48.8,29.84,ESE,112,1.0,1.0,72,0.00,,,0.00,Wunderground v.1.15,2013-04-23 15:00:00,
2013-04-23 08:15:00,58.0,48.6,29.84,ESE,104,1.0,1.0,71,0.00,,,0.00,Wunderground v.1.15,2013-04-23 15:15:00,
2013-04-23 08:35:00,58.3,48.9,29.85,ESE,104,1.0,1.0,71,0.00,,,0.00,Wunderground v.1.15,2013-04-23 15:35:00,
2013-04-23 08:40:00,58.4,49.0,29.85,ESE,104,0.0,1.0,71,0.00,,,0.00,Wunderground v.1.15,2013-04-23 15:40:00,
2013-04-23 08:46:00,58.4,49.0,29.85,ESE,106,1.0,1.0,71,0.00,,,0.00,Wunderground v.1.15,2013-04-23 15:46:00,
2013-04-23 08:50:00,58.6,48.8,29.85,ESE,106,1.0,1.0,70,0.00,,,0.00,Wunderground v.1.15,2013-04-23 15:50:00,
2013-04-23 09:00:00,58.7,48.9,29.86,ESE,106,0.0,0.0,70,0.00,,,0.00,Wunderground v.1.15,2013-04-23 16:00:00,
2013-04-23 09:10:00,58.9,49.1,29.86,ESE,106,1.0,1.0,70,0.00,,,0.00,Wunderground v.1.15,2013-04-23 16:10:00,
2013-04-23 09:20:00,58.9,49.1,29.86,WSW,247,1.0,3.0,70,0.00,,,0.00,Wunderground v.1.15,2013-04-23 16:20:00,
2013-04-23 09:35:00,59.2,49.0,29.86,SE,138,1.0,1.0,69,0.00,,,0.00,Wunderground v.1.15,2013-04-23 16:35:00,
2013-04-23 09:40:00,59.2,49.4,29.86,South,191,1.0,3.0,70,0.00,,,0.00,Wunderground v.1.15,2013-04-23 16:40:00,
2013-04-23 09:50:00,59.2,49.4,29.86,SSW,202,1.0,1.0,70,0.00,,,0.00,Wunderground v.1.15,2013-04-23 16:50:00,
2013-04-23 10:00:00,59.5,49.3,29.87,SW,230,1.0,1.0,69,0.00,,,0.00,Wunderground v.1.15,2013-04-23 17:00:00,
2013-04-23 10:10:00,59.5,49.7,29.87,SW,215,3.0,6.0,70,0.00,,,0.00,Wunderground v.1.15,2013-04-23 17:10:00,
2013-04-23 10:15:00,59.7,49.9,29.87,SSW,193,3.0,6.0,70,0.00,,,0.00,Wunderground v.1.15,2013-04-23 17:15:00,
2013-04-23 10:20:00,59.8,49.6,29.87,South,182,2.0,3.0,69,0.00,,,0.00,Wunderground v.1.15,2013-04-23 17:20:00,
2013-04-23 10:25:00,60.0,49.8,29.87,South,191,2.0,3.0,69,0.00,,,0.00,Wunderground v.1.15,2013-04-23 17:25:00,
2013-04-23 10:35:00,59.8,49.6,29.87,West,264,3.0,5.0,69,0.00,,,0.00,Wunderground v.1.15,2013-04-23 17:35:00,
2013-04-23 10:45:00,60.0,49.4,29.87,West,268,5.0,5.0,68,0.00,,,0.00,Wunderground v.1.15,2013-04-23 17:45:00,
2013-04-23 10:55:00,60.5,49.5,29.87,SW,216,3.0,5.0,67,0.00,,,0.00,Wunderground v.1.15,2013-04-23 17:55:00,
2013-04-23 11:00:00,60.6,49.6,29.87,WSW,248,3.0,3.0,67,0.00,,,0.00,Wunderground v.1.15,2013-04-23 18:00:00,
2013-04-23 11:05:00,60.9,49.5,29.87,SW,232,3.0,3.0,66,0.00,,,0.00,Wunderground v.1.15,2013-04-23 18:05:00,
2013-04-23 11:10:00,61.2,49.7,29.87,SSW,209,3.0,5.0,66,0.00,,,0.00,Wunderground v.1.15,2013-04-23 18:10:00,
2013-04-23 11:20:00,62.5,50.2,29.86,SSW,200,2.0,2.0,64,0.00,,,0.00,Wunderground v.1.15,2013-04-23 18:20:00,
2013-04-23 11:30:00,63.5,49.8,29.86,WSW,237,4.0,6.0,61,0.00,,,0.00,Wunderground v.1.15,2013-04-23 18:30:00,
2013-04-23 11:35:00,63.0,49.3,29.86,SW,219,4.0,6.0,61,0.00,,,0.00,Wunderground v.1.15,2013-04-23 18:35:00,
2013-04-23 11:45:00,63.3,50.1,29.86,WSW,244,2.0,4.0,62,0.00,,,0.00,Wunderground v.1.15,2013-04-23 18:45:00,
2013-04-23 11:55:00,63.7,50.0,29.86,South,169,5.0,5.0,61,0.00,,,0.00,Wunderground v.1.15,2013-04-23 18:55:00,
2013-04-23 12:00:00,64.5,50.3,29.86,SSW,192,4.0,4.0,60,0.00,,,0.00,Wunderground v.1.15,2013-04-23 19:00:00,
2013-04-23 12:05:00,65.4,50.7,29.85,SSW,205,4.0,4.0,59,0.00,,,0.00,Wunderground v.1.15,2013-04-23 19:05:00,
2013-04-23 12:10:00,65.4,50.2,29.85,SSW,195,4.0,4.0,58,0.00,,,0.00,Wunderground v.1.15,2013-04-23 19:10:00,
2013-04-23 12:20:00,65.9,50.7,29.84,SSE,158,3.0,5.0,58,0.00,,,0.00,Wunderground v.1.15,2013-04-23 19:20:00,
2013-04-23 12:25:00,65.9,50.2,29.84,SSE,167,5.0,5.0,57,0.00,,,0.00,Wunderground v.1.15,2013-04-23 19:25:00,
2013-04-23 12:30:00,66.1,49.9,29.84,ESE,103,3.0,3.0,56,0.00,,,0.00,Wunderground v.1.15,2013-04-23 19:30:00,
2013-04-23 12:35:00,66.3,50.1,29.84,SE,140,2.0,3.0,56,0.00,,,0.00,Wunderground v.1.15,2013-04-23 19:35:00,
2013-04-23 12:45:00,66.1,49.9,29.84,SSW,206,5.0,7.0,56,0.00,,,0.00,Wunderground v.1.15,2013-04-23 19:45:00,
2013-04-23 12:55:00,66.6,50.9,29.84,SW,234,5.0,6.0,57,0.00,,,0.00,Wunderground v.1.15,2013-04-23 19:55:00,
2013-04-23 13:00:00,66.6,49.9,29.84,South,172,4.0,4.0,55,0.00,,,0.00,Wunderground v.1.15,2013-04-23 20:00:00,
2013-04-23 13:05:00,66.6,50.4,29.83,West,270,5.0,5.0,56,0.00,,,0.00,Wunderground v.1.15,2013-04-23 20:05:00,
2013-04-23 13:11:00,67.1,49.9,29.83,South,182,4.0,4.0,54,0.00,,,0.00,Wunderground v.1.15,2013-04-23 20:11:00,
2013-04-23 13:25:00,67.4,50.7,29.82,South,186,5.0,6.0,55,0.00,,,0.00,Wunderground v.1.15,2013-04-23 20:25:00,
2013-04-23 13:30:00,67.6,50.4,29.82,South,178,6.0,6.0,54,0.00,,,0.00,Wunderground v.1.15,2013-04-23 20:30:00,
2013-04-23 13:36:00,67.8,50.5,29.82,SE,133,6.0,6.0,54,0.00,,,0.00,Wunderground v.1.15,2013-04-23 20:36:00,
2013-04-23 13:40:00,67.9,50.6,29.82,WSW,239,5.0,9.0,54,0.00,,,0.00,Wunderground v.1.15,2013-04-23 20:40:00,
2013-04-23 13:45:00,67.6,50.4,29.81,SW,230,5.0,9.0,54,0.00,,,0.00,Wunderground v.1.15,2013-04-23 20:45:00,
2013-04-23 13:50:00,67.3,50.6,29.81,SSW,208,5.0,5.0,55,0.00,,,0.00,Wunderground v.1.15,2013-04-23 20:50:00,
2013-04-23 14:00:00,67.9,50.1,29.80,SSE,160,6.0,6.0,53,0.00,,,0.00,Wunderground v.1.15,2013-04-23 21:00:00,
2013-04-23 14:10:00,68.1,50.3,29.80,South,185,5.0,5.0,53,0.00,,,0.00,Wunderground v.1.15,2013-04-23 21:10:00,
2013-04-23 14:15:00,67.6,50.4,29.80,SW,233,4.0,5.0,54,0.00,,,0.00,Wunderground v.1.15,2013-04-23 21:15:00,
2013-04-23 14:25:00,67.3,50.6,29.80,WSW,240,5.0,7.0,55,0.00,,,0.00,Wunderground v.1.15,2013-04-23 21:25:00,
2013-04-23 14:30:00,67.1,49.9,29.80,South,189,6.0,7.0,54,0.00,,,0.00,Wunderground v.1.15,2013-04-23 21:30:00,
2013-04-23 14:35:00,66.9,50.7,29.79,South,174,6.0,6.0,56,0.00,,,0.00,Wunderground v.1.15,2013-04-23 21:35:00,
2013-04-23 14:40:00,67.4,50.7,29.79,SSW,212,7.0,7.0,55,0.00,,,0.00,Wunderground v.1.15,2013-04-23 21:40:00,
2013-04-23 14:50:00,67.6,50.9,29.79,SW,224,6.0,10.0,55,0.00,,,0.00,Wunderground v.1.15,2013-04-23 21:50:00,
2013-04-23 15:00:00,68.4,50.6,29.78,South,185,5.0,9.0,53,0.00,,,0.00,Wunderground v.1.15,2013-04-23 22:00:00,
2013-04-23 15:10:00,66.8,50.1,29.78,South,178,7.0,11.0,55,0.00,,,0.00,Wunderground v.1.15,2013-04-23 22:10:00,
2013-04-23 15:15:00,66.6,50.9,29.78,SSW,213,7.0,11.0,57,0.00,,,0.00,Wunderground v.1.15,2013-04-23 22:15:00,
2013-04-23 15:25:00,67.8,50.0,29.78,SW,236,6.0,11.0,53,0.00,,,0.00,Wunderground v.1.15,2013-04-23 22:25:00,
2013-04-23 15:35:00,68.6,50.3,29.77,South,186,6.0,7.0,52,0.00,,,0.00,Wunderground v.1.15,2013-04-23 22:35:00,
2013-04-23 15:45:00,67.4,50.7,29.76,South,171,6.0,6.0,55,0.00,,,0.00,Wunderground v.1.15,2013-04-23 22:45:00,
2013-04-23 15:55:00,68.3,50.5,29.76,SSW,200,5.0,5.0,53,0.00,,,0.00,Wunderground v.1.15,2013-04-23 22:55:00,
2013-04-23 16:00:00,67.6,50.9,29.75,SW,215,6.0,6.0,55,0.00,,,0.00,Wunderground v.1.15,2013-04-23 23:00:00,
2013-04-23 16:10:00,66.6,50.9,29.75,SSW,208,7.0,7.0,57,0.00,,,0.00,Wunderground v.1.15,2013-04-23 23:10:00,
2013-04-23 16:20:00,68.4,51.1,29.75,South,175,5.0,5.0,54,0.00,,,0.00,Wunderground v.1.15,2013-04-23 23:20:00,
2013-04-23 16:30:00,66.9,51.2,29.75,SW,226,7.0,9.0,57,0.00,,,0.00,Wunderground v.1.15,2013-04-23 23:30:00,
2013-04-23 16:35:00,66.6,51.8,29.75,SSE,168,7.0,11.0,59,0.00,,,0.00,Wunderground v.1.15,2013-04-23 23:35:00,
2013-04-23 16:45:00,65.9,51.2,29.75,South,169,7.0,7.0,59,0.00,,,0.00,Wunderground v.1.15,2013-04-23 23:45:00,
2013-04-23 16:55:00,64.9,50.2,29.75,WNW,282,8.0,8.0,59,0.00,,,0.00,Wunderground v.1.15,2013-04-23 23:55:00,
2013-04-23 17:05:00,65.1,50.9,29.75,South,169,7.0,8.0,60,0.00,,,0.00,Wunderground v.1.15,2013-04-24 00:05:00,
2013-04-23 17:10:00,65.1,50.0,29.75,SSW,198,7.0,7.0,58,0.00,,,0.00,Wunderground v.1.15,2013-04-24 00:10:00,
2013-04-23 17:20:00,65.4,51.1,29.75,South,181,5.0,5.0,60,0.00,,,0.00,Wunderground v.1.15,2013-04-24 00:20:00,
2013-04-23 17:30:00,66.1,50.4,29.75,SW,229,7.0,11.0,57,0.00,,,0.00,Wunderground v.1.15,2013-04-24 00:30:00,
2013-04-23 17:35:00,65.6,50.9,29.75,SSW,208,8.0,11.0,59,0.00,,,0.00,Wunderground v.1.15,2013-04-24 00:35:00,
2013-04-23 17:45:00,66.1,51.4,29.75,SSW,206,6.0,6.0,59,0.00,,,0.00,Wunderground v.1.15,2013-04-24 00:45:00,
2013-04-23 17:55:00,66.6,51.8,29.75,SW,227,5.0,6.0,59,0.00,,,0.00,Wunderground v.1.15,2013-04-24 00:55:00,
2013-04-23 18:00:00,66.6,52.3,29.75,SW,216,5.0,5.0,60,0.00,,,0.00,Wunderground v.1.15,2013-04-24 01:00:00,
2013-04-23 18:10:00,67.1,52.7,29.75,NW,308,5.0,5.0,60,0.00,,,0.00,Wunderground v.1.15,2013-04-24 01:10:00,
2013-04-23 18:20:00,66.8,52.5,29.75,WNW,295,6.0,8.0,60,0.00,,,0.00,Wunderground v.1.15,2013-04-24 01:20:00,
2013-04-23 18:30:00,65.9,52.5,29.75,West,272,6.0,7.0,62,0.00,,,0.00,Wunderground v.1.15,2013-04-24 01:30:00,
2013-04-23 18:35:00,65.6,52.2,29.75,North,359,6.0,7.0,62,0.00,,,0.00,Wunderground v.1.15,2013-04-24 01:35:00,
2013-04-23 18:40:00,65.1,52.2,29.75,NW,316,5.0,5.0,63,0.00,,,0.00,Wunderground v.1.15,2013-04-24 01:40:00,
2013-04-23 18:45:00,64.8,52.3,29.76,WNW,282,5.0,7.0,64,0.00,,,0.00,Wunderground v.1.15,2013-04-24 01:45:00,
2013-04-23 18:55:00,63.7,52.1,29.76,NW,316,6.0,10.0,66,0.00,,,0.00,Wunderground v.1.15,2013-04-24 01:55:00,
2013-04-23 19:05:00,63.0,51.9,29.76,NNW,333,5.0,7.0,67,0.00,,,0.00,Wunderground v.1.15,2013-04-24 02:05:00,
2013-04-23 19:15:00,62.2,51.9,29.76,NW,305,6.0,6.0,69,0.00,,,0.00,Wunderground v.1.15,2013-04-24 02:15:00,
2013-04-23 19:25:00,61.2,51.7,29.76,NW,313,5.0,5.0,71,0.00,,,0.00,Wunderground v.1.15,2013-04-24 02:25:00,
2013-04-23 19:30:00,61.1,51.6,29.76,NW,323,5.0,5.0,71,0.00,,,0.00,Wunderground v.1.15,2013-04-24 02:30:00,
2013-04-23 19:40:00,60.6,51.5,29.77,NNW,330,4.0,6.0,72,0.00,,,0.00,Wunderground v.1.15,2013-04-24 02:40:00,
2013-04-23 19:45:00,60.5,51.8,29.77,NNW,328,5.0,5.0,73,0.00,,,0.00,Wunderground v.1.15,2013-04-24 02:45:00,
2013-04-23 19:51:00,60.3,51.6,29.78,NW,323,5.0,8.0,73,0.00,,,0.00,Wunderground v.1.15,2013-04-24 02:51:00,
2013-04-23 20:00:00,59.8,51.5,29.78,WNW,289,5.0,7.0,74,0.00,,,0.00,Wunderground v.1.15,2013-04-24 03:00:00,
2013-04-23 20:40:00,58.6,51.1,29.79,NW,319,4.0,7.0,76,0.00,,,0.00,Wunderground v.1.15,2013-04-24 03:40:00,
2013-04-23 20:50:00,58.4,50.9,29.80,NW,305,3.0,4.0,76,0.00,,,0.00,Wunderground v.1.15,2013-04-24 03:50:00,
2013-04-23 21:00:00,58.3,51.1,29.80,NW,312,3.0,3.0,77,0.00,,,0.00,Wunderground v.1.15,2013-04-24 04:00:00,
2013-04-23 21:05:00,58.3,51.1,29.80,NW,309,2.0,3.0,77,0.00,,,0.00,Wunderground v.1.15,2013-04-24 04:05:00,
2013-04-23 21:15:00,58.1,50.9,29.81,NW,313,2.0,5.0,77,0.00,,,0.00,Wunderground v.1.15,2013-04-24 04:15:00,
2013-04-23 21:20:00,58.1,50.9,29.81,NW,325,1.0,3.0,77,0.00,,,0.00,Wunderground v.1.15,2013-04-24 04:20:00,
2013-04-23 21:30:00,58.1,50.9,29.81,NW,325,1.0,3.0,77,0.00,,,0.00,Wunderground v.1.15,2013-04-24 04:30:00,
2013-04-23 21:40:00,58.0,50.8,29.81,NW,325,2.0,2.0,77,0.00,,,0.00,Wunderground v.1.15,2013-04-24 04:40:00,
2013-04-23 21:45:00,58.0,51.2,29.81,NW,325,2.0,2.0,78,0.00,,,0.00,Wunderground v.1.15,2013-04-24 04:45:00,
2013-04-23 21:51:00,57.8,51.0,29.81,NW,325,1.0,1.0,78,0.00,,,0.00,Wunderground v.1.15,2013-04-24 04:51:00,
2013-04-23 21:55:00,57.8,51.0,29.81,NW,325,1.0,1.0,78,0.00,,,0.00,Wunderground v.1.15,2013-04-24 04:55:00,
2013-04-23 22:00:00,57.8,51.0,29.82,NW,325,0.0,1.0,78,0.00,,,0.00,Wunderground v.1.15,2013-04-24 05:00:00,
2013-04-23 22:10:00,57.7,50.9,29.82,NNW,339,1.0,3.0,78,0.00,,,0.00,Wunderground v.1.15,2013-04-24 05:10:00,
2013-04-23 22:15:00,57.7,50.9,29.82,NNW,339,1.0,3.0,78,0.00,,,0.00,Wunderground v.1.15,2013-04-24 05:15:00,
2013-04-23 22:30:00,57.4,50.6,29.82,NNW,339,1.0,1.0,78,0.00,,,0.00,Wunderground v.1.15,2013-04-24 05:30:00,
2013-04-23 22:35:00,57.4,50.6,29.82,North,0,1.0,3.0,78,0.00,,,0.00,Wunderground v.1.15,2013-04-24 05:35:00,
2013-04-23 22:45:00,57.4,50.6,29.83,NNW,339,2.0,2.0,78,0.00,,,0.00,Wunderground v.1.15,2013-04-24 05:45:00,
2013-04-23 22:50:00,57.2,50.4,29.83,NNW,339,1.0,2.0,78,0.00,,,0.00,Wunderground v.1.15,2013-04-24 05:50:00,
2013-04-23 23:00:00,57.2,50.7,29.83,NW,326,2.0,3.0,79,0.00,,,0.00,Wunderground v.1.15,2013-04-24 06:00:00,
2013-04-23 23:10:00,57.2,50.7,29.83,NNW,335,2.0,2.0,79,0.00,,,0.00,Wunderground v.1.15,2013-04-24 06:10:00,
2013-04-23 23:15:00,57.2,50.7,29.83,NNW,335,1.0,2.0,79,0.00,,,0.00,Wunderground v.1.15,2013-04-24 06:15:00,
2013-04-23 23:25:00,57.4,50.9,29.83,NNW,335,1.0,2.0,79,0.00,,,0.00,Wunderground v.1.15,2013-04-24 06:25:00,
2013-04-23 23:35:00,57.5,50.7,29.83,NNW,335,0.0,1.0,78,0.00,,,0.00,Wunderground v.1.15,2013-04-24 06:35:00,
2013-04-23 23:45:00,57.7,50.9,29.83,NNW,335,1.0,2.0,78,0.00,,,0.00,Wunderground v.1.15,2013-04-24 06:45:00,
2013-04-23 23:55:00,57.8,51.0,29.83,NNW,335,0.0,2.0,78,0.00,,,0.00,Wunderground v.1.15,2013-04-24 06:55:00,